Weather History for Olive Branch, MS

Change the Weather History Date:

Tuesday, December 25, 2012

  Actual Average (KMEM) Record (KMEM)
Temperature  
Mean Temperature 36 °F 42 °F  
Max Temperature 41 °F 50 °F 76 °F (1889)
Min Temperature 32 °F 34 °F 0 °F (1983)
Degree Days  
Heating Degree Days 28 23  
Month to date heating degree days 525  
Since 1 July heating degree days 1024  
Cooling Degree Days 0 0  
Month to date cooling degree days 0  
Year to date cooling degree days 2256  
Moisture  
Dew Point 35 °F    
Average Humidity 98    
Maximum Humidity 100    
Minimum Humidity 87    
Precipitation  
Precipitation 0.11 in 0.18 in 4.24 in (1987)
Month to date precipitation 4.76  
Year to date precipitation 52.70  
Snow  
Snow 0.00 in 0.00 in 3.50 in (1913)
Month to date snowfall 0.1  
Since 1 July snowfall 0.1  
Snow Depth -    
Sea Level Pressure  
Sea Level Pressure 29.81 in    
Wind  
Wind Speed 13 mph (NE)    
Max Wind Speed 29 mph    
Max Gust Speed 37 mph    
Visibility 5 miles    
Events Rain    
T = Trace of Precipitation, MM = Missing Value Source: NWS Daily Summary

Daily Weather History Graph

Daily Weather History Graph

Search for Another Location

Airport:

Trip Planner

Search our weather history database for the weather conditions in past years. The results will help you decide how hot, cold, wet, or windy it might be!

Date:

Astronomy

Dec. 25, 2012 Rise Set
Actual Time 7:05 AM CST 4:53 PM CST
Civil Twilight 6:37 AM CST 5:22 PM CST
Nautical Twilight 6:05 AM CST 5:53 PM CST
Astronomical Twilight 5:34 AM CST 6:24 PM CST
Moon 3:00 PM CST (12/25) 4:39 AM CST (12/25)
Length of Visible Light 10h 45m
Length of Day
9h 48m
Waxing Gibbous, 94% of the Moon is Illuminated
Dec 25
Waxing Gibbous
Dec 28
Full
Jan 4
Last Quarter
Jan 11
New
Jan 18
First Quarter

Hourly Weather History & Observations

Time (CST) Temp. Windchill Dew Point Humidity Pressure Visibility Wind Dir Wind Speed Gust Speed Precip Events Conditions
12:15 AM 41.0 °F 34.3 °F 37.4 °F 87% 29.98 in 10.0 mi NE 11.5 mph - 0.00 in   Overcast
12:35 AM 39.2 °F 31.2 °F 37.4 °F 93% 29.97 in 8.0 mi NE 13.8 mph - 0.00 in   Overcast
12:55 AM 39.2 °F 32.5 °F 37.4 °F 93% 29.97 in 8.0 mi NE 10.4 mph - 0.00 in   Mostly Cloudy
1:15 AM 37.4 °F 30.8 °F 37.4 °F 100% 29.97 in 10.0 mi NE 9.2 mph - 0.00 in   Mostly Cloudy
1:35 AM 37.4 °F 32.1 °F 35.6 °F 93% 29.98 in 10.0 mi NE 6.9 mph - 0.00 in   Overcast
1:55 AM 37.4 °F 30.8 °F 33.8 °F 87% 29.98 in 8.0 mi NE 9.2 mph 17.3 mph 0.00 in   Mostly Cloudy
2:15 AM 37.4 °F 30.8 °F 35.6 °F 93% 29.99 in 8.0 mi NNE 9.2 mph - 0.00 in   Mostly Cloudy
2:35 AM 35.6 °F 27.5 °F 33.8 °F 93% 29.99 in 5.0 mi NE 11.5 mph - 0.00 in   Overcast
2:55 AM 35.6 °F 27.1 °F 33.8 °F 93% 29.99 in 5.0 mi NE 12.7 mph - 0.00 in   Scattered Clouds
3:15 AM 35.6 °F 27.1 °F 33.8 °F 93% 29.99 in 7.0 mi NE 12.7 mph - 0.00 in   Mostly Cloudy
3:35 AM 33.8 °F 25.8 °F 33.8 °F 100% 29.99 in 5.0 mi NNE 10.4 mph - 0.00 in   Overcast
3:55 AM 33.8 °F 25.8 °F 33.8 °F 100% 29.99 in 6.0 mi NNE 10.4 mph - 0.00 in   Mostly Cloudy
4:15 AM 33.8 °F 24.3 °F 33.8 °F 100% 29.99 in 6.0 mi NNE 13.8 mph - 0.00 in   Overcast
4:35 AM 33.8 °F 23.9 °F 32.0 °F 93% 29.96 in 5.0 mi NNE 15.0 mph 18.4 mph 0.00 in   Mostly Cloudy
4:55 AM 32.0 °F 22.1 °F 32.0 °F 100% 29.96 in 5.0 mi NNE 13.8 mph - 0.00 in   Mostly Cloudy
5:15 AM 32.0 °F 21.6 °F 32.0 °F 100% 29.96 in 5.0 mi NE 15.0 mph - 0.00 in   Overcast
5:35 AM 32.0 °F 22.5 °F 32.0 °F 100% 29.94 in 4.0 mi NNE 12.7 mph - 0.00 in   Overcast
5:55 AM 32.0 °F 23.6 °F 32.0 °F 100% 29.96 in 4.0 mi NE 10.4 mph - 0.00 in   Overcast
6:50 AM 32.0 °F 26.4 °F 32.0 °F 100% 29.99 in 3.0 mi NE 5.8 mph - N/A   Overcast
7:50 AM 33.8 °F 26.4 °F 33.8 °F 100% 29.97 in 3.0 mi NE 9.2 mph 18.4 mph N/A   Overcast
8:50 AM 33.8 °F 26.4 °F 33.8 °F 100% 30.01 in 3.0 mi NE 9.2 mph - N/A   Overcast
9:55 AM 33.8 °F 26.4 °F 33.8 °F 100% 29.96 in 5.0 mi NE 9.2 mph 20.7 mph N/A   Overcast
10:50 AM 33.8 °F 25.3 °F 33.8 °F 100% 29.99 in 5.0 mi NE 11.5 mph 23.0 mph N/A   Overcast
11:50 AM 35.6 °F 26.6 °F 35.6 °F 100% 29.90 in 5.0 mi NE 13.8 mph - N/A   Overcast
12:50 PM 35.6 °F 27.5 °F 35.6 °F 100% 29.86 in 4.0 mi NE 11.5 mph 21.9 mph N/A   Overcast
1:50 PM 35.6 °F 28.0 °F 35.6 °F 100% 29.80 in 3.0 mi ENE 10.4 mph - N/A Rain Light Rain
2:55 PM 35.6 °F 26.2 °F 35.6 °F 100% 29.77 in 2.0 mi NE 15.0 mph - N/A Rain Rain
3:45 PM 35.6 °F 25.2 °F 35.6 °F 100% 29.73 in 1.2 mi NE 18.4 mph 27.6 mph N/A Rain Rain
4:50 PM 35.6 °F 24.2 °F 35.6 °F 100% 29.67 in 1.5 mi NE 21.9 mph 28.8 mph N/A Rain Rain
5:50 PM 33.8 °F 20.3 °F 33.8 °F 100% 29.64 in 2.5 mi NE 28.8 mph 36.8 mph N/A Rain Light Rain
6:50 PM 33.8 °F 21.6 °F 33.8 °F 100% 29.55 in 5.0 mi NE 23.0 mph 34.5 mph N/A   Overcast
7:50 PM 35.6 °F 25.5 °F 35.6 °F 100% 29.53 in 7.0 mi NE 17.3 mph 29.9 mph N/A   Overcast
8:15 PM 35.6 °F 24.0 °F 35.6 °F 100% 29.54 in 7.0 mi NE 23.0 mph 29.9 mph 0.00 in   Overcast
8:35 PM 35.6 °F 24.8 °F 35.6 °F 100% 29.55 in 7.0 mi NE 19.6 mph 25.3 mph 0.00 in   Overcast
8:55 PM 35.6 °F 24.8 °F 35.6 °F 100% 29.53 in 5.0 mi NE 19.6 mph 25.3 mph 0.00 in   Overcast
9:15 PM 35.6 °F 25.5 °F 35.6 °F 100% 29.52 in 7.0 mi NE 17.3 mph 24.2 mph 0.00 in   Overcast
9:35 PM 35.6 °F 25.9 °F 35.6 °F 100% 29.52 in 2.5 mi NNE 16.1 mph 21.9 mph 0.00 in   Overcast
10:35 PM 35.6 °F 26.6 °F 35.6 °F 100% 29.54 in 2.0 mi North 13.8 mph 17.3 mph 0.05 in   Overcast
10:55 PM 35.6 °F 25.5 °F 35.6 °F 100% 29.52 in 3.0 mi North 17.3 mph 24.2 mph 0.07 in   Overcast
11:15 PM 35.6 °F 25.2 °F 35.6 °F 100% 29.53 in 3.0 mi North 18.4 mph 24.2 mph 0.01 in   Overcast
11:35 PM 33.8 °F 22.8 °F 33.8 °F 100% 29.53 in 4.0 mi North 18.4 mph 24.2 mph 0.01 in   Overcast
11:55 PM 33.8 °F 22.2 °F 33.8 °F 100% 29.51 in 2.0 mi North 20.7 mph 29.9 mph 0.04 in   Overcast